Home   Weather   Kolonia   Past weeks

Flag for Micronesia Past Weather in Kolonia, Pohnpei, Micronesia — Yesterday and Last 2 Weeks

79 °F

Sprinkles. Mostly cloudy.

Feels Like: 83 °F
Forecast: 77 / 86 °F
Wind: 3 mph from North

Location: Pohnpei

Current Time: Oct 26, 2016 at 1:27:02 PM

Latest Report: Oct 26, 2016 at 12:55 PM

Visibility: 13 mi

Pressure: 29.84 "Hg

Humidity: 91%

Dew Point: 76 °F

Location of KoloniaLocation

Past Weather in Kolonia — Graph


Kolonia Temperature Yesterday

Maximum temperature yesterday: 89 °F (at 11:50 AM)
Minimum temperature yesterday: 75 °F (at 1:50 AM)
Average temperature yesterday: 83 °F

High & Low Weather Summary for the Past Weeks

High90 °F (Oct 22, 1:52 PM)100% (Oct 12, 1:01 AM)29.90 "Hg (Oct 12, 1:01 AM)
Low74 °F (Oct 16, 1:50 AM)64% (Oct 23, 3:52 PM)29.70 "Hg (Oct 12, 3:53 AM)
Average80 °F87%29.82 "Hg
* Reported Oct 11 11:50 AM — Oct 26 11:51 AM, Kolonia, Weather by CustomWeather, © 2016

Note: Actual official high and low records may vary slightly from our data, if they occured in-between our weather recording intervals... More about our weather records


Kolonia Weather History for the Previous 24 Hours

Scroll right to see more
Time TempWeatherWind HumidityBarometerVisibility
11:51 AM
Wed, Oct 26
81 °FThunderstorms. Mostly cloudy.5 mph86%29.87 "Hg10 mi
10:50 AM84 °FCloudy.8 mph83%29.87 "Hg15 mi
9:50 AM86 °FCloudy.5 mph76%29.88 "Hg15 mi
8:51 AM87 °FBroken clouds.3 mph72%29.87 "Hg15 mi
7:50 AM82 °FPartly sunny.3 mph81%29.86 "Hg15 mi
4:50 AM76 °FPassing clouds.6 mph96%29.80 "Hg15 mi
1:50 AM77 °FPartly cloudy.3 mph94%29.83 "Hg15 mi
12:50 AM77 °FMostly cloudy.3 mph96%29.84 "Hg15 mi
11:52 PM
Tue, Oct 25
77 °FMostly cloudy.3 mph96%29.86 "Hg15 mi
10:52 PM78 °FMostly cloudy.3 mph91%29.88 "Hg15 mi
9:53 PM78 °FMostly cloudy.5 mph96%29.89 "Hg15 mi
8:51 PM80 °FMostly cloudy.2 mph92%29.88 "Hg15 mi
7:52 PM80 °FMostly cloudy.3 mph90%29.85 "Hg15 mi
6:52 PM82 °FMostly cloudy.3 mph84%29.83 "Hg15 mi
5:52 PM83 °FMore clouds than sun.3 mph82%29.80 "Hg15 mi
4:52 PM85 °FMore clouds than sun.7 mph80%29.80 "Hg15 mi
3:50 PM86 °FBroken clouds.7 mph78%29.78 "Hg15 mi
2:57 PM87 °FCloudy.6 mph76%29.78 "Hg15 mi
1:50 PM86 °FCloudy.7 mph78%29.80 "Hg15 mi
Weather by CustomWeather, © 2016

See weather overviewHow to use our weather pages